STARLINK-34502

Last updated on Sat Jul 19 2025 00:02:08 GMT+0000 (Coordinated Universal Time)

1 64680U 25139S 25199.58335648 .00042188 00000+0 76307-3 0 9990 2 64680 53.1591 138.1296 0000919 86.1625 120.8260 15.49287953 4384
UTC large
Height (km)
Speed (km/s)
/
Latitude / Longitude
Inclination (degrees)
Orbital Period (minutes)
Azimuth
Elevation
Range (km)
Doppler Factor

Next 0 passes for location: London (51.5072 / 0.1276)

Sorry there are no passes over London.